Time,TemperatureF,DewpointF,PressureIn,WindDirection,WindDirectionDegrees,WindSpeedMPH,WindSpeedGustMPH,Humidity,HourlyPrecipIn,Conditions,Clouds,dailyrainin,SoftwareType,DateUTC
2013-05-10 00:03:00,72.0,72.0,30.13,SE,140,0.0,0.0,99,0.00,,,0.00,,2013-05-10 04:03:00,
2013-05-10 00:12:00,72.0,72.0,30.12,SE,140,0.0,0.0,99,0.00,,,0.00,,2013-05-10 04:12:00,
2013-05-10 00:23:00,72.0,72.0,30.12,SE,140,0.0,0.0,99,0.00,,,0.00,,2013-05-10 04:23:00,
2013-05-10 00:33:00,72.0,72.0,30.13,SE,140,0.0,0.0,99,0.00,,,0.00,,2013-05-10 04:33:00,
2013-05-10 00:43:00,72.0,72.0,30.12,SE,140,0.0,0.0,99,0.00,,,0.00,,2013-05-10 04:43:00,
2013-05-10 00:52:00,72.0,72.0,30.12,SE,140,0.0,0.0,99,0.00,,,0.00,,2013-05-10 04:52:00,
2013-05-10 01:02:00,72.0,72.0,30.13,SE,140,0.0,0.0,99,0.00,,,0.00,,2013-05-10 05:02:00,
2013-05-10 01:12:00,72.0,72.0,30.12,SE,140,0.0,0.0,99,0.00,,,0.00,,2013-05-10 05:12:00,
2013-05-10 01:22:00,72.0,72.0,30.12,SE,140,0.0,0.0,99,0.00,,,0.00,,2013-05-10 05:22:00,
2013-05-10 01:32:00,72.0,72.0,30.12,SE,140,0.0,0.0,99,0.00,,,0.00,,2013-05-10 05:32:00,
2013-05-10 01:42:00,72.0,72.0,30.11,SE,140,0.0,0.0,99,0.00,,,0.00,,2013-05-10 05:42:00,
2013-05-10 01:52:00,72.0,72.0,30.11,SE,140,0.0,0.0,99,0.00,,,0.00,,2013-05-10 05:52:00,
2013-05-10 02:02:00,72.0,72.0,30.11,ENE,63,6.0,7.0,99,0.00,,,0.00,,2013-05-10 06:02:00,
2013-05-10 02:12:00,72.0,72.0,30.09,SW,230,0.0,0.0,99,0.00,,,0.00,,2013-05-10 06:12:00,
2013-05-10 02:21:00,72.0,72.0,30.09,SW,230,0.0,0.0,99,0.00,,,0.00,,2013-05-10 06:21:00,
2013-05-10 02:32:00,72.0,72.0,30.09,South,171,0.0,6.0,99,0.00,,,0.00,,2013-05-10 06:32:00,
2013-05-10 02:42:00,72.0,72.0,30.09,South,174,0.0,0.0,99,0.00,,,0.00,,2013-05-10 06:42:00,
2013-05-10 02:52:00,72.0,72.0,30.09,South,174,0.0,0.0,99,0.00,,,0.00,,2013-05-10 06:52:00,
2013-05-10 03:02:00,72.0,72.0,30.08,South,174,0.0,0.0,99,0.00,,,0.00,,2013-05-10 07:02:00,
2013-05-10 03:12:00,72.0,72.0,30.08,South,174,0.0,0.0,99,0.00,,,0.00,,2013-05-10 07:12:00,
2013-05-10 03:22:00,72.0,72.0,30.08,South,174,0.0,0.0,99,0.00,,,0.00,,2013-05-10 07:22:00,
2013-05-10 03:31:00,72.0,72.0,30.08,South,174,0.0,0.0,99,0.00,,,0.00,,2013-05-10 07:31:00,
2013-05-10 03:42:00,71.0,71.0,30.07,South,188,0.0,0.0,99,0.00,,,0.00,,2013-05-10 07:42:00,
2013-05-10 03:52:00,71.0,71.0,30.07,South,188,0.0,0.0,99,0.00,,,0.00,,2013-05-10 07:52:00,
2013-05-10 04:02:00,71.0,71.0,30.07,South,188,0.0,0.0,99,0.00,,,0.00,,2013-05-10 08:02:00,
2013-05-10 04:12:00,71.0,71.0,30.06,South,188,0.0,0.0,99,0.00,,,0.00,,2013-05-10 08:12:00,
2013-05-10 04:22:00,71.0,71.0,30.06,South,188,0.0,0.0,99,0.00,,,0.00,,2013-05-10 08:22:00,
2013-05-10 04:32:00,71.0,71.0,30.06,East,85,0.0,0.0,99,0.00,,,0.00,,2013-05-10 08:32:00,
2013-05-10 04:42:00,71.0,71.0,30.05,East,85,0.0,0.0,99,0.00,,,0.00,,2013-05-10 08:42:00,
2013-05-10 04:52:00,71.0,71.0,30.05,East,85,0.0,0.0,99,0.00,,,0.00,,2013-05-10 08:52:00,
2013-05-10 05:01:00,71.0,71.0,30.04,East,85,0.0,0.0,99,0.00,,,0.00,,2013-05-10 09:01:00,
2013-05-10 05:11:00,71.0,71.0,30.04,East,85,0.0,0.0,99,0.00,,,0.00,,2013-05-10 09:11:00,
2013-05-10 05:21:00,71.0,71.0,30.04,East,85,0.0,0.0,99,0.00,,,0.00,,2013-05-10 09:21:00,
2013-05-10 05:32:00,70.0,70.0,30.04,East,85,0.0,0.0,99,0.00,,,0.00,,2013-05-10 09:32:00,
2013-05-10 05:43:00,71.0,71.0,30.04,East,85,0.0,0.0,99,0.00,,,0.00,,2013-05-10 09:43:00,
2013-05-10 05:52:00,71.0,71.0,30.04,East,85,0.0,0.0,99,0.00,,,0.00,,2013-05-10 09:52:00,
2013-05-10 06:03:00,71.0,71.0,30.04,East,85,0.0,0.0,99,0.00,,,0.00,,2013-05-10 10:03:00,
2013-05-10 06:12:00,71.0,71.0,30.04,East,85,0.0,0.0,99,0.00,,,0.00,,2013-05-10 10:12:00,
2013-05-10 06:23:00,71.0,71.0,30.03,WSW,246,0.0,8.0,99,0.00,,,0.00,,2013-05-10 10:23:00,
2013-05-10 06:32:00,71.0,71.0,30.03,SE,135,6.0,8.0,99,0.00,,,0.00,,2013-05-10 10:32:00,
2013-05-10 06:42:00,71.0,71.0,30.03,NW,312,3.0,9.0,99,0.00,,,0.00,,2013-05-10 10:42:00,
2013-05-10 06:53:00,71.0,71.0,30.03,NW,312,3.0,9.0,99,0.00,,,0.00,,2013-05-10 10:53:00,
2013-05-10 07:02:00,71.0,71.0,30.03,NW,312,3.0,9.0,99,0.00,,,0.00,,2013-05-10 11:02:00,
2013-05-10 07:12:00,70.0,70.0,30.04,ENE,68,4.0,4.0,99,0.00,,,0.00,,2013-05-10 11:12:00,
2013-05-10 07:22:00,70.0,70.0,30.04,ENE,68,4.0,4.0,99,0.00,,,0.00,,2013-05-10 11:22:00,
2013-05-10 07:32:00,70.0,70.0,30.04,WNW,293,6.0,10.0,99,0.00,,,0.00,,2013-05-10 11:32:00,
2013-05-10 07:42:00,70.0,70.0,30.05,NW,316,4.0,9.0,99,0.00,,,0.00,,2013-05-10 11:42:00,
2013-05-10 07:52:00,70.0,70.0,30.05,NW,316,4.0,9.0,99,0.00,,,0.00,,2013-05-10 11:52:00,
2013-05-10 08:01:00,70.0,70.0,30.04,ESE,108,6.0,8.0,99,0.00,,,0.00,,2013-05-10 12:01:00,
2013-05-10 08:12:00,70.0,70.0,30.05,West,260,0.0,8.0,99,0.00,,,0.00,,2013-05-10 12:12:00,
2013-05-10 08:22:00,70.0,70.0,30.05,West,260,0.0,8.0,99,0.00,,,0.00,,2013-05-10 12:22:00,
2013-05-10 08:32:00,70.0,70.0,30.06,North,358,0.0,7.0,99,0.00,,,0.00,,2013-05-10 12:32:00,
2013-05-10 08:42:00,70.0,70.0,30.06,North,358,0.0,7.0,99,0.00,,,0.00,,2013-05-10 12:42:00,
2013-05-10 08:52:00,70.0,70.0,30.06,North,358,0.0,0.0,99,0.00,,,0.00,,2013-05-10 12:52:00,
2013-05-10 09:01:00,71.0,71.0,30.07,SSW,208,0.0,10.0,99,0.00,,,0.00,,2013-05-10 13:01:00,
2013-05-10 09:11:00,71.0,71.0,30.07,SSW,208,0.0,10.0,99,0.00,,,0.00,,2013-05-10 13:11:00,
2013-05-10 09:21:00,71.0,71.0,30.07,West,264,10.0,10.0,99,0.00,,,0.00,,2013-05-10 13:21:00,
2013-05-10 09:32:00,71.0,71.0,30.06,SE,125,0.0,10.0,99,0.00,,,0.00,,2013-05-10 13:32:00,
2013-05-10 09:42:00,71.0,71.0,30.06,SE,125,0.0,10.0,99,0.00,,,0.00,,2013-05-10 13:42:00,
2013-05-10 09:52:00,71.0,71.0,30.06,SE,125,0.0,10.0,99,0.00,,,0.00,,2013-05-10 13:52:00,
2013-05-10 10:02:00,72.0,72.0,30.06,North,358,0.0,0.0,99,0.00,,,0.00,,2013-05-10 14:02:00,
2013-05-10 10:11:00,73.0,73.0,30.06,West,267,0.0,0.0,99,0.00,,,0.00,,2013-05-10 14:11:00,
2013-05-10 10:21:00,73.0,73.0,30.06,West,267,0.0,0.0,99,0.00,,,0.00,,2013-05-10 14:21:00,
2013-05-10 10:32:00,74.0,74.0,30.06,West,267,0.0,0.0,99,0.00,,,0.00,,2013-05-10 14:32:00,
2013-05-10 10:42:00,74.0,74.0,30.06,North,4,7.0,7.0,99,0.00,,,0.00,,2013-05-10 14:42:00,
2013-05-10 10:52:00,74.0,74.0,30.06,North,4,7.0,7.0,99,0.00,,,0.00,,2013-05-10 14:52:00,
2013-05-10 11:02:00,75.0,75.0,30.06,North,358,0.0,0.0,99,0.00,,,0.00,,2013-05-10 15:02:00,
2013-05-10 11:20:00,-999.0,-99.9,30.06,North,358,0.0,0.0,99,0.00,,,0.00,,2013-05-10 15:20:00,
2013-05-10 11:32:00,76.0,76.0,30.06,North,358,0.0,0.0,99,0.00,,,0.00,,2013-05-10 15:32:00,
2013-05-10 11:42:00,77.0,77.0,30.07,North,358,0.0,0.0,99,0.00,,,0.00,,2013-05-10 15:42:00,
2013-05-10 11:53:00,77.0,77.0,30.07,North,358,0.0,0.0,99,0.00,,,0.00,,2013-05-10 15:53:00,
2013-05-10 12:02:00,78.0,78.0,30.08,North,358,0.0,6.0,99,0.00,,,0.00,,2013-05-10 16:02:00,
2013-05-10 12:12:00,78.0,78.0,30.08,North,358,0.0,6.0,99,0.00,,,0.00,,2013-05-10 16:12:00,
2013-05-10 12:23:00,78.0,78.0,30.08,North,358,0.0,6.0,99,0.00,,,0.00,,2013-05-10 16:23:00,
2013-05-10 12:33:00,79.0,76.0,30.08,NNE,23,6.0,9.0,92,0.00,,,0.00,,2013-05-10 16:33:00,
2013-05-10 12:42:00,80.0,76.0,30.08,North,358,0.0,0.0,89,0.00,,,0.00,,2013-05-10 16:42:00,
2013-05-10 12:53:00,80.0,76.0,30.08,North,358,0.0,0.0,89,0.00,,,0.00,,2013-05-10 16:53:00,
2013-05-10 13:02:00,80.0,77.0,30.08,ENE,61,0.0,5.0,90,0.00,,,0.00,,2013-05-10 17:02:00,
2013-05-10 13:12:00,79.0,76.0,30.08,NNE,30,0.0,0.0,90,0.00,,,0.00,,2013-05-10 17:12:00,
2013-05-10 13:22:00,79.0,76.0,30.08,NNE,30,0.0,0.0,90,0.00,,,0.00,,2013-05-10 17:22:00,
2013-05-10 13:32:00,80.0,75.0,30.08,NNE,22,0.0,0.0,86,0.00,,,0.00,,2013-05-10 17:32:00,
2013-05-10 13:42:00,80.0,75.0,30.08,North,358,0.0,0.0,85,0.00,,,0.00,,2013-05-10 17:42:00,
2013-05-10 13:52:00,80.0,75.0,30.08,North,358,0.0,0.0,85,0.00,,,0.00,,2013-05-10 17:52:00,
2013-05-10 14:11:00,-999.0,-99.9,30.08,NE,36,0.0,0.0,85,0.00,,,0.00,,2013-05-10 18:11:00,
2013-05-10 14:22:00,79.0,74.0,30.08,North,358,0.0,0.0,86,0.00,,,0.00,,2013-05-10 18:22:00,
2013-05-10 14:34:00,79.0,74.0,30.07,North,358,0.0,2.0,86,0.00,,,0.00,,2013-05-10 18:34:00,
2013-05-10 14:43:00,79.0,75.0,30.07,ESE,122,0.0,1.0,88,0.00,,,0.00,,2013-05-10 18:43:00,
2013-05-10 14:54:00,79.0,75.0,30.07,ESE,122,0.0,1.0,88,0.00,,,0.00,,2013-05-10 18:54:00,
2013-05-10 15:02:00,79.0,75.0,30.06,ESE,122,0.0,0.0,87,0.00,,,0.00,,2013-05-10 19:02:00,
2013-05-10 15:11:00,79.0,75.0,30.06,ESE,122,0.0,0.0,88,0.00,,,0.00,,2013-05-10 19:11:00,
2013-05-10 15:21:00,79.0,75.0,30.06,ESE,122,0.0,0.0,88,0.00,,,0.00,,2013-05-10 19:21:00,
2013-05-10 15:32:00,80.0,76.0,30.05,SE,130,0.0,6.0,88,0.00,,,0.00,,2013-05-10 19:32:00,
2013-05-10 15:42:00,80.0,76.0,30.05,North,358,0.0,7.0,88,0.00,,,0.00,,2013-05-10 19:42:00,
2013-05-10 15:52:00,80.0,76.0,30.05,North,358,0.0,7.0,88,0.00,,,0.00,,2013-05-10 19:52:00,
2013-05-10 16:02:00,79.0,76.0,30.04,North,358,0.0,0.0,90,0.00,,,0.00,,2013-05-10 20:02:00,
2013-05-10 16:12:00,79.0,76.0,30.04,North,358,0.0,0.0,90,0.00,,,0.00,,2013-05-10 20:12:00,
2013-05-10 16:21:00,79.0,76.0,30.04,North,358,0.0,0.0,90,0.00,,,0.00,,2013-05-10 20:21:00,
2013-05-10 16:32:00,79.0,76.0,30.03,ENE,68,0.0,3.0,92,0.00,,,0.00,,2013-05-10 20:32:00,
2013-05-10 16:42:00,79.0,76.0,30.03,ENE,68,0.0,3.0,92,0.00,,,0.00,,2013-05-10 20:42:00,
2013-05-10 16:52:00,79.0,77.0,30.03,ENE,68,0.0,0.0,93,0.00,,,0.00,,2013-05-10 20:52:00,
2013-05-10 17:02:00,79.0,77.0,30.03,ENE,68,0.0,0.0,93,0.00,,,0.00,,2013-05-10 21:02:00,
2013-05-10 17:11:00,79.0,77.0,30.03,North,358,0.0,0.0,94,0.00,,,0.00,,2013-05-10 21:11:00,
2013-05-10 17:25:00,79.0,77.0,30.03,North,358,0.0,0.0,94,0.00,,,0.00,,2013-05-10 21:25:00,
2013-05-10 17:32:00,78.0,76.0,30.02,North,358,0.0,0.0,94,0.00,,,0.00,,2013-05-10 21:32:00,
2013-05-10 17:43:00,79.0,77.0,30.02,North,358,0.0,0.0,95,0.00,,,0.00,,2013-05-10 21:43:00,
2013-05-10 17:52:00,79.0,77.0,30.02,North,358,0.0,0.0,95,0.00,,,0.00,,2013-05-10 21:52:00,
2013-05-10 18:03:00,79.0,77.0,30.02,North,358,0.0,0.0,95,0.00,,,0.00,,2013-05-10 22:03:00,
2013-05-10 18:13:00,78.0,76.0,30.01,North,358,0.0,0.0,95,0.00,,,0.00,,2013-05-10 22:13:00,
2013-05-10 18:22:00,78.0,76.0,30.01,North,358,0.0,0.0,95,0.00,,,0.00,,2013-05-10 22:22:00,
2013-05-10 18:32:00,78.0,76.0,30.00,North,358,0.0,0.0,95,0.00,,,0.00,,2013-05-10 22:32:00,
2013-05-10 18:42:00,77.0,76.0,30.00,North,358,0.0,0.0,96,0.00,,,0.00,,2013-05-10 22:42:00,
2013-05-10 18:52:00,77.0,76.0,30.00,North,358,0.0,0.0,96,0.00,,,0.00,,2013-05-10 22:52:00,
2013-05-10 19:02:00,77.0,76.0,30.00,North,358,0.0,0.0,96,0.00,,,0.00,,2013-05-10 23:02:00,
2013-05-10 19:12:00,77.0,76.0,30.00,North,358,0.0,0.0,96,0.00,,,0.00,,2013-05-10 23:12:00,
2013-05-10 19:22:00,78.0,77.0,29.99,North,358,0.0,0.0,97,0.00,,,0.00,,2013-05-10 23:22:00,
2013-05-10 19:33:00,77.0,76.0,29.99,North,358,0.0,0.0,97,0.00,,,0.00,,2013-05-10 23:33:00,
2013-05-10 19:42:00,77.0,76.0,29.99,North,358,0.0,0.0,98,0.00,,,0.00,,2013-05-10 23:42:00,
2013-05-10 19:52:00,77.0,76.0,29.99,North,358,0.0,0.0,98,0.00,,,0.00,,2013-05-10 23:52:00,
2013-05-10 20:02:00,76.0,75.0,29.99,North,358,0.0,0.0,98,0.00,,,0.00,,2013-05-11 00:02:00,
2013-05-10 20:11:00,76.0,76.0,29.99,North,358,0.0,0.0,99,0.00,,,0.00,,2013-05-11 00:11:00,
2013-05-10 20:21:00,76.0,76.0,29.99,North,358,0.0,0.0,99,0.00,,,0.00,,2013-05-11 00:21:00,
2013-05-10 20:32:00,76.0,76.0,30.00,North,358,0.0,0.0,99,0.00,,,0.00,,2013-05-11 00:32:00,
2013-05-10 20:42:00,76.0,76.0,30.01,North,358,0.0,0.0,99,0.00,,,0.00,,2013-05-11 00:42:00,
2013-05-10 20:52:00,76.0,76.0,30.01,North,358,0.0,0.0,99,0.00,,,0.00,,2013-05-11 00:52:00,
2013-05-10 21:01:00,76.0,76.0,30.01,North,358,0.0,0.0,99,0.00,,,0.00,,2013-05-11 01:01:00,
2013-05-10 21:11:00,76.0,76.0,30.01,North,358,0.0,0.0,99,0.00,,,0.00,,2013-05-11 01:11:00,
2013-05-10 21:21:00,76.0,76.0,30.01,North,358,0.0,0.0,99,0.00,,,0.00,,2013-05-11 01:21:00,
2013-05-10 21:32:00,76.0,76.0,30.02,North,358,0.0,0.0,99,0.00,,,0.00,,2013-05-11 01:32:00,
2013-05-10 21:42:00,76.0,76.0,30.02,North,358,0.0,0.0,99,0.00,,,0.00,,2013-05-11 01:42:00,
2013-05-10 21:52:00,76.0,76.0,30.02,North,358,0.0,0.0,99,0.00,,,0.00,,2013-05-11 01:52:00,
2013-05-10 22:02:00,76.0,76.0,30.02,North,358,0.0,0.0,99,0.00,,,0.00,,2013-05-11 02:02:00,
2013-05-10 22:11:00,76.0,76.0,30.02,North,358,0.0,0.0,99,0.00,,,0.00,,2013-05-11 02:11:00,
2013-05-10 22:22:00,76.0,76.0,30.02,North,358,0.0,0.0,99,0.00,,,0.00,,2013-05-11 02:22:00,
2013-05-10 22:32:00,76.0,76.0,30.03,North,358,0.0,0.0,99,0.00,,,0.00,,2013-05-11 02:32:00,
2013-05-10 22:42:00,76.0,76.0,30.03,North,358,0.0,0.0,99,0.00,,,0.00,,2013-05-11 02:42:00,
2013-05-10 22:52:00,76.0,76.0,30.03,North,358,0.0,0.0,99,0.00,,,0.00,,2013-05-11 02:52:00,
2013-05-10 23:01:00,76.0,76.0,30.03,North,358,0.0,0.0,99,0.00,,,0.00,,2013-05-11 03:01:00,
2013-05-10 23:11:00,76.0,76.0,30.03,North,358,0.0,0.0,99,0.00,,,0.00,,2013-05-11 03:11:00,
2013-05-10 23:21:00,76.0,76.0,30.03,North,358,0.0,0.0,99,0.00,,,0.00,,2013-05-11 03:21:00,
2013-05-10 23:33:00,76.0,76.0,30.04,North,358,0.0,0.0,99,0.00,,,0.00,,2013-05-11 03:33:00,
2013-05-10 23:42:00,76.0,76.0,30.04,North,358,0.0,0.0,99,0.00,,,0.00,,2013-05-11 03:42:00,
2013-05-10 23:53:00,76.0,76.0,30.04,North,358,0.0,0.0,99,0.00,,,0.00,,2013-05-11 03:53:00,